Location: Angwan Shehu
(11.2514°N, 7.4613°E)
Time: 10:16:04
(UTC+00:00)

ATLAS 5 CENTAUR R/B - Pass Details

Date: 14 November 2019
Orbit: 266 x 13000 km, 20.1° (Epoch: 05 December)

Event Time Altitude Azimuth Distance (km) Brightness Sun altitude
Rises 18:40:05 0° 289° (WNW) 2,888 5.4 -23.6°
Reaches altitude 10° 18:41:37 10° 297° (WNW) 2,341 4.6 -24.0°
Maximum altitude 18:46:50 49° 13° (NNE) 1,897 3.2 -25.2°
Enters shadow 18:51:00 37° 59° (ENE) 3,108 4.0 -26.2°
